This demonstration page uses our WeatherBlox Daily Observations layout. Learn more.

Left ArrowRight Arrow

39.92423, -83.80882

Hourly Observations for February 9, 2019

Temp ( °F °C ) Dew Point ( °F °C ) Humidity (%) Winds ( mph kmh ) Pressure ( in mb ) Visibility ( mi km ) Precip ( " mm )
12:19 am 00:19 Partly Cloudy 16 -9 9 -13 73 73 WNW 13 20 30.79 1043 10 16.0934 N/A
12:56 am 00:56 Partly Cloudy 15 -9.4 9 -12.8 77 77 NW 12 19 30.77 1042 10 16.0934 N/A
1:19 am 01:19 Mostly Cloudy 16 -9 9 -13 73 73 WNW 12 19 30.81 1043 10 16.0934 N/A
1:56 am 01:56 Cloudy with Light Snow 14 -10 8 -13.3 77 77 NW 9 15 30.8 1043 9 14.48406 N/A
2:26 am 02:26 Partly Cloudy 14 -10 9 -13 79 79 NW 10 17 30.84 1044 10 16.0934 N/A
2:45 am 02:45 Mostly Cloudy with Light Snow 14 -10 9 -13 79 79 NW 9 15 30.84 1044 9 14.48406 N/A
2:56 am 02:56 Cloudy with Light Snow 14 -10 8 -13.3 77 77 NW 12 19 30.8 1043 9 14.48406 N/A
3:56 am 03:56 Mostly Cloudy with Light Snow 13 -10.6 7 -13.9 77 77 NNW 12 19 30.83 1044 9 14.48406 N/A
4:36 am 04:36 Partly Cloudy 12 -11 7 -14 79 79 NNW 8 13 30.88 1046 10 16.0934 N/A
4:56 am 04:56 Clear 12 -11.1 7 -13.9 80 80 NNW 8 13 30.84 1044 10 16.0934 N/A
5:56 am 05:56 Clear 12 -11.1 7 -13.9 80 80 NNW 8 13 30.85 1045 10 16.0934 N/A
6:56 am 06:56 Clear 11 -11.7 7 -13.9 84 84 NNW 6 9 30.87 1045 10 16.0934 N/A
7:56 am 07:56 Sunny 11 -11.7 7 -13.9 84 84 N 5 7 30.88 1046 10 16.0934 N/A
8:56 am 08:56 Sunny 14 -10 9 -12.8 80 80 N 5 7 30.9 1046 10 16.0934 N/A
9:56 am 09:56 Partly Cloudy 16 -8.9 10 -12.2 77 77 ENE 9 15 30.9 1046 10 16.0934 N/A
10:56 am 10:56 Mostly Sunny 17 -8.3 9 -12.8 70 70 ENE 6 9 30.9 1047 10 16.0934 N/A
11:56 am 11:56 Mostly Sunny 20 -6.7 10 -12.2 65 65 E 3 6 30.9 1046 10 16.0934 N/A
12:56 pm 12:56 Mostly Sunny 22 -5.6 13 -10.6 68 68 E 7 11 30.87 1045 10 16.0934 N/A
1:56 pm 13:56 Sunny 23 -5 14 -10 68 68 VRB 3 6 30.84 1044 10 16.0934 N/A
2:56 pm 14:56 Sunny 24 -4.4 14 -10 65 65 SE 6 9 30.82 1044 10 16.0934 N/A
3:56 pm 15:56 Sunny 25 -3.9 15 -9.4 66 66 E 5 7 30.79 1043 10 16.0934 N/A
4:56 pm 16:56 Sunny 24 -4.4 16 -8.9 71 71 SE 7 11 30.78 1042 10 16.0934 N/A
5:56 pm 17:56 Sunny 22 -5.6 15 -9.4 75 75 E 6 9 30.78 1042 10 16.0934 N/A
6:56 pm 18:56 Clear 21 -6.1 16 -8.9 81 81 E 5 7 30.79 1043 10 16.0934 N/A
7:56 pm 19:56 Clear 20 -6.7 17 -8.3 89 89 E 5 7 30.78 1042 10 16.0934 N/A
8:56 pm 20:56 Clear 18 -7.8 15 -9.4 88 88 ENE 6 9 30.75 1041 10 16.0934 N/A
9:56 pm 21:56 Clear 18 -7.8 15 -9.4 88 88 E 6 9 30.74 1041 10 16.0934 N/A
10:56 pm 22:56 Clear 18 -7.8 15 -9.4 88 88 E 3 6 30.72 1040 10 16.0934 N/A
11:56 pm 23:56 Clear 17 -8.3 14 -10 88 88 E 6 9 30.7 1040 10 16.0934 N/A

Powered by AerisWeather